Wind_Speed
6 4 6 8 8 3 4 6 8 8 3 1 8 14 12 13 4 5 8 11 15 14 11 14 12 10 10 10 11 12 13 13 14 14 15 14 14 12 8 6 4 1 1 3
3 7 2 5 4 2 3 6 6 2 3 1 8 18 15 4 4 2 2 1 6 12 12 11 9 9 8 10 12 12 13 13 13 13 12 13 11 7 6 3 4 2 3 4
5 2 3 1 3 3 5 5 3 3 8 6 8 7 3 2 4 5 3 4 8 12 9 8 7 8 8 11 11 13 12 11 12 11 10 10 8 4 5 4 3 3 3 4
5 3 3 3 3 5 4 3 3 4 6 3 2 5 4 5 5 5 9 6 8 9 9 7 6 8 9 12 11 11 10 10 10 9 8 8 6 2 2 4 3 2 1 3
4 4 3 3 2 1 1 2 3 2 2 4 3 1 5 4 5 6 7 10 8 7 6 6 8 11 13 11 9 10 10 9 8 7 7 6 4 2 1 4 4 2 1 4
3 1 3 2 5 5 5 2 2 0 1 1 1 2 5 3 5 7 8 10 9 9 9 10 11 9 10 8 8 8 8 8 7 7 6 6 3 1 1 1 3 1 2 2
2 3 2 2 4 2 3 1 3 4 2 5 1 0 8 2 5 7 9 13 12 10 9 8 8 7 9 10 7 8 7 6 6 6 6 5 3 0 1 3 4 1 3 4
7 5 8 6 1 5 6 3 4 5 3 3 3 5 5 4 9 9 11 14 12 11 8 9 8 9 10 9 7 7 6 5 5 6 6 5 2 1 3 3 4 3 2 4
6 1 2 4 4 2 5 4 2 5 1 3 4 6 1 4 4 6 9 11 12 8 7 7 8 9 10 8 5 5 5 4 5 6 5 3 1 2 3 2 3 2 3 7
4 3 3 2 1 2 2 2 3 1 3 4 4 4 5 5 7 8 8 13 11 9 8 8 9 9 10 8 5 3 3 4 6 5 2 1 2 2 1 2 2 3 5 6
4 3 1 1 7 7 3 2 4 0 3 5 1 5 4 5 9 10 9 15 13 12 9 6 7 9 9 7 5 3 3 3 6 4 2 0 4 3 2 2 1 2 5 6
5 4 4 6 2 3 3 3 6 4 5 1 2 6 2 5 2 8 16 16 14 13 11 5 8 10 9 7 5 2 2 3 4 2 1 3 7 5 3 3 3 5 6 2
6 4 3 3 2 3 5 6 4 1 2 6 6 5 2 4 3 6 9 13 16 14 13 6 10 10 10 8 6 2 1 1 1 1 2 8 9 6 5 6 7 7 6 7
1 1 5 10 4 5 6 8 12 5 3 5 6 4 5 6 7 7 11 14 16 16 13 10 12 11 12 9 7 4 2 1 1 3 6 11 10 8 8 8 9 10 10 12
1 3 1 2 1 3 6 5 16 16 12 7 7 10 9 9 9 13 15 15 15 19 15 14 14 14 15 13 10 6 4 4 4 6 12 14 11 10 10 10 11 16 14 15
3 2 1 3 2 1 5 9 10 13 4 6 4 7 7 9 7 8 12 12 15 15 16 14 16 18 18 16 13 10 7 7 6 10 16 14 13 12 11 11 14 16 18 20
2 3 2 4 3 2 9 9 13 8 10 14 10 13 6 5 8 13 14 15 16 15 14 13 15 17 19 19 16 12 10 9 9 12 18 15 13 15 12 11 14 15 18 18
4 1 1 2 1 8 4 3 16 21 12 19 8 7 6 5 8 10 12 16 17 16 13 13 13 18 22 22 20 16 14 13 12 15 19 19 17 15 15 12 16 17 14 15
10 5 2 3 4 10 12 4 8 9 14 20 24 21 6 9 4 23 20 21 19 18 15 13 12 18 24 26 23 19 17 17 16 18 21 22 20 18 16 14 14 15 18 19
10 9 7 4 5 10 3 10 19 3 7 7 21 19 16 9 3 10 7 9 14 16 13 11 15 21 24 28 25 23 19 18 19 20 23 23 21 19 19 17 15 17 16 18
5 4 12 12 9 8 4 5 18 8 3 16 29 25 19 9 10 8 11 14 13 11 9 13 18 20 27 30 27 24 22 20 19 19 23 25 22 21 20 19 17 16 13 10
10 9 5 5 8 14 4 5 12 5 6 8 19 25 24 23 17 14 17 15 13 11 13 17 20 23 30 29 27 25 23 24 22 21 21 23 25 23 20 16 14 11 9 6
6 7 8 9 6 5 21 4 28 7 8 16 10 16 20 22 20 21 18 15 14 12 15 18 20 26 31 28 26 25 25 24 24 23 21 21 21 20 19 17 15 12 10 9
3 1 3 1 8 10 13 24 22 22 29 21 14 14 18 25 21 19 17 16 14 13 17 19 22 29 31 29 27 24 24 24 23 24 23 22 20 20 18 17 15 15 13 12
6 8 6 13 9 6 13 25 29 30 30 27 22 15 22 24 22 19 18 16 14 14 18 19 23 28 29 28 29 27 25 23 23 22 22 22 20 19 19 18 16 14 13 11
10 8 8 9 9 17 20 34 29 32 36 33 24 18 22 24 22 20 18 15 15 16 18 21 23 26 27 28 29 29 28 26 24 23 22 21 21 21 20 18 17 16 14 12
Wind_Direction
201 203 213 215 211 2 334 307 295 296 128 19 254 269 273 274 285 319 286 271 240 230 203 219 243 255 268 283 297 306 314 314 316 320 321 321 319 315 311 302 299 277 268 280
131 233 75 75 66 20 271 283 286 295 84 96 291 288 285 97 100 90 294 263 197 178 185 226 236 259 277 290 303 304 310 315 316 318 320 325 324 327 331 360 9 339 247 211
214 93 91 153 135 202 226 245 346 320 326 240 290 272 173 121 131 150 202 92 147 172 196 212 226 263 278 290 298 303 309 314 315 320 326 323 321 340 347 356 352 290 243 179
240 107 162 157 219 181 255 28 52 329 17 285 18 284 261 154 179 192 174 175 170 168 176 196 226 255 269 274 294 298 309 318 317 320 325 324 336 351 13 3 332 333 1 215
225 146 174 188 97 79 143 34 50 14 306 356 217 239 258 129 202 193 179 182 177 184 204 216 240 235 256 283 296 308 317 324 320 326 332 324 333 337 76 349 331 290 257 219
80 329 344 61 75 47 134 145 123 57 15 342 197 144 281 187 219 142 165 170 178 182 195 205 235 255 273 292 301 310 321 326 324 335 331 316 332 316 166 319 306 333 249 241
119 192 111 199 106 85 241 109 358 345 7 228 111 72 250 193 106 154 169 177 180 186 196 223 248 263 278 295 312 317 323 324 321 328 328 329 323 345 271 293 290 157 201 213
156 269 172 175 213 194 188 169 167 212 224 273 7 243 261 79 116 115 158 170 178 185 193 216 242 248 264 278 297 315 318 322 319 321 327 323 343 268 282 298 306 317 214 201
157 281 55 11 5 16 193 186 166 104 62 38 220 261 180 132 148 182 187 185 191 191 198 237 252 253 265 276 291 312 308 317 311 328 318 301 194 288 258 360 306 305 228 214
214 86 345 75 292 265 270 323 98 339 163 245 282 266 237 218 208 205 201 204 199 190 203 220 253 250 255 270 290 318 299 300 322 336 345 299 170 215 308 59 328 289 275 240
132 120 5 80 208 183 171 216 225 142 175 176 229 261 211 154 184 192 194 200 196 200 198 222 259 248 249 256 275 322 310 308 351 344 339 131 132 138 140 104 81 294 285 280
177 105 152 200 341 1 328 226 188 149 219 247 150 272 140 118 102 149 181 170 188 201 198 215 246 242 244 242 253 288 294 313 346 328 41 108 134 129 122 92 41 2 353 47
190 206 99 330 350 353 225 197 236 144 87 199 145 255 143 147 227 216 190 192 207 213 214 249 235 236 227 221 228 235 251 352 12 348 142 123 135 123 110 79 38 26 65 110
140 188 206 222 172 133 185 203 200 180 146 179 220 258 221 237 220 209 212 224 225 229 224 254 221 228 217 218 211 200 154 119 104 130 145 131 134 116 108 82 65 64 101 119
199 247 135 285 289 178 187 198 195 201 211 179 236 207 216 217 211 217 224 237 247 231 243 209 223 219 216 208 197 189 168 146 129 134 143 137 137 122 108 89 81 95 117 113
192 273 56 283 326 276 251 217 192 223 320 297 226 272 214 215 196 200 227 221 232 234 235 238 225 217 213 206 192 180 169 157 142 138 142 140 137 127 115 96 102 98 119 109
240 175 128 258 287 252 278 192 185 200 213 213 219 234 161 206 214 223 224 222 241 243 244 239 223 215 207 197 187 177 167 163 148 145 143 143 132 132 123 100 105 109 112 121
193 165 276 242 357 233 260 299 192 198 201 217 269 248 197 200 218 237 230 242 244 250 240 234 218 203 194 188 177 176 169 163 156 150 141 135 131 134 126 110 102 109 117 113
207 187 226 244 223 304 287 154 152 176 239 214 219 236 207 223 291 279 267 261 252 241 230 223 218 192 189 182 178 173 169 165 161 157 146 141 142 143 139 130 118 112 109 109
181 218 198 168 217 230 121 199 180 162 266 210 203 225 227 154 244 262 225 216 214 212 204 219 193 179 185 181 180 172 170 165 163 163 155 149 144 146 147 146 141 125 121 114
160 189 215 216 242 278 255 121 131 175 244 199 192 214 179 189 216 195 178 165 179 190 208 192 186 185 183 180 180 176 167 164 162 162 167 161 153 149 148 146 142 136 131 122
173 179 178 200 224 254 163 114 166 237 229 227 215 214 205 206 204 192 177 181 192 194 195 189 190 184 180 180 180 179 169 163 163 164 165 170 169 163 162 164 164 165 165 174
200 201 200 196 215 244 195 216 217 250 270 241 220 213 215 193 190 180 186 192 188 187 190 191 194 182 178 178 185 182 174 169 163 166 166 163 163 167 172 174 177 173 160 146
226 164 209 181 235 242 246 241 254 260 260 267 269 250 211 199 191 189 185 188 189 189 192 189 186 181 179 178 184 187 182 175 171 169 170 168 168 164 162 161 159 159 160 159
201 153 189 253 247 314 282 251 253 261 264 266 259 251 217 198 190 194 188 190 187 191 189 187 185 183 180 181 181 185 187 184 178 178 178 175 173 171 170 169 171 173 170 166
205 202 201 233 187 225 244 254 267 255 255 260 262 244 220 209 198 194 191 189 188 188 187 184 182 188 183 186 185 187 189 186 188 185 184 188 180 178 178 180 175 174 175 176
Height
1490 1494 1495 1486 1485 1485 1487 1488 1488 1480 1486 1487 1483 1473 1460 1458 1456 1458 1459 1460 1463 1467 1468 1471 1473 1474 1474 1474 1473 1471 1469 1468 1467 1466 1463 1462 1460 1458 1458 1457 1457 1457 1458 1460
1492 1493 1484 1483 1485 1486 1488 1490 1488 1478 1485 1488 1481 1471 1459 1455 1454 1458 1460 1459 1461 1464 1466 1469 1471 1472 1473 1472 1471 1470 1468 1466 1466 1464 1462 1460 1458 1456 1456 1457 1457 1457 1458 1459
1487 1486 1486 1484 1487 1489 1489 1490 1488 1491 1487 1480 1485 1467 1458 1457 1456 1457 1460 1460 1462 1464 1466 1469 1471 1472 1472 1471 1470 1468 1466 1465 1464 1462 1460 1459 1457 1457 1458 1458 1458 1458 1458 1459
1485 1487 1487 1487 1486 1486 1491 1492 1491 1493 1496 1497 1483 1494 1451 1456 1457 1457 1459 1461 1463 1465 1467 1469 1470 1471 1471 1469 1469 1467 1465 1464 1462 1460 1459 1458 1457 1457 1458 1458 1459 1459 1459 1460
1487 1488 1490 1487 1486 1487 1492 1493 1494 1496 1498 1500 1486 1495 1457 1453 1457 1458 1458 1459 1462 1463 1466 1468 1469 1469 1469 1468 1467 1465 1463 1462 1461 1459 1458 1457 1457 1457 1457 1458 1459 1459 1459 1460
1488 1490 1489 1488 1492 1492 1496 1494 1494 1498 1502 1515 1486 1488 1467 1458 1449 1453 1456 1458 1460 1462 1464 1466 1466 1467 1466 1466 1466 1464 1462 1461 1460 1459 1458 1457 1457 1457 1457 1457 1457 1458 1459 1459
1488 1489 1490 1490 1493 1495 1497 1494 1511 1510 1515 1506 1489 1491 1465 1446 1446 1448 1453 1456 1458 1459 1461 1463 1464 1464 1464 1464 1464 1463 1461 1460 1459 1458 1457 1456 1457 1457 1457 1456 1457 1457 1459 1459
1485 1492 1489 1488 1486 1488 1495 1491 1501 1509 1503 1495 1495 1487 1457 1446 1445 1448 1451 1454 1456 1457 1460 1462 1463 1463 1462 1462 1462 1462 1460 1459 1458 1457 1457 1456 1457 1457 1458 1457 1457 1457 1457 1458
1476 1482 1489 1490 1489 1490 1493 1500 1489 1505 1525 1505 1478 1461 1446 1447 1449 1450 1452 1453 1454 1456 1458 1460 1461 1462 1461 1460 1460 1460 1460 1458 1457 1457 1457 1456 1456 1458 1457 1456 1456 1457 1457 1458
1462 1484 1493 1492 1492 1490 1489 1489 1498 1500 1505 1503 1480 1463 1462 1448 1450 1449 1450 1450 1452 1454 1456 1457 1458 1459 1459 1458 1459 1459 1458 1457 1457 1456 1455 1456 1456 1458 1458 1456 1456 1455 1455 1456
1461 1464 1498 1492 1492 1486 1494 1492 1488 1483 1487 1493 1496 1469 1436 1436 1441 1443 1445 1446 1449 1450 1452 1454 1454 1455 1455 1456 1457 1458 1457 1456 1456 1455 1455 1455 1457 1457 1458 1456 1455 1454 1454 1453
1456 1466 1489 1485 1484 1482 1482 1473 1475 1479 1485 1494 1489 1471 1435 1436 1437 1437 1439 1442 1445 1447 1449 1451 1451 1452 1453 1454 1455 1456 1457 1456 1455 1455 1454 1456 1457 1457 1458 1456 1456 1454 1453 1451
1452 1464 1488 1484 1487 1486 1482 1471 1470 1468 1472 1489 1482 1464 1436 1436 1437 1438 1440 1441 1442 1444 1446 1448 1449 1450 1450 1450 1452 1454 1456 1455 1455 1454 1455 1457 1458 1459 1459 1457 1456 1455 1454 1454
1453 1458 1453 1440 1443 1456 1474 1465 1462 1465 1477 1464 1464 1451 1436 1440 1438 1436 1437 1439 1440 1441 1442 1444 1445 1448 1448 1449 1450 1452 1454 1455 1454 1454 1455 1457 1459 1460 1460 1459 1458 1457 1457 1457
1456 1460 1461 1457 1451 1448 1448 1456 1454 1457 1445 1451 1442 1443 1431 1430 1432 1432 1432 1435 1436 1436 1437 1438 1440 1443 1446 1446 1447 1450 1452 1453 1454 1454 1455 1458 1461 1462 1462 1461 1460 1459 1460 1460
1454 1460 1460 1458 1460 1457 1454 1445 1452 1454 1457 1452 1451 1440 1423 1422 1424 1427 1428 1430 1432 1431 1433 1434 1436 1439 1440 1444 1446 1448 1451 1452 1454 1455 1456 1459 1462 1464 1465 1465 1465 1463 1464 1465
1455 1458 1459 1454 1462 1456 1447 1440 1441 1441 1436 1433 1440 1418 1419 1422 1421 1421 1423 1424 1426 1426 1427 1429 1431 1433 1436 1440 1444 1446 1449 1452 1454 1456 1458 1460 1463 1466 1468 1468 1468 1469 1469 1470
1453 1453 1455 1454 1456 1440 1411 1413 1411 1415 1421 1423 1420 1416 1413 1415 1416 1416 1418 1419 1420 1421 1421 1423 1425 1429 1432 1437 1440 1444 1448 1451 1453 1457 1459 1461 1464 1468 1471 1472 1473 1473 1474 1475
1447 1451 1453 1450 1449 1422 1405 1413 1417 1420 1408 1407 1409 1407 1410 1413 1415 1409 1410 1411 1413 1416 1416 1418 1421 1423 1430 1434 1438 1443 1446 1450 1453 1457 1461 1464 1467 1469 1473 1475 1477 1478 1479 1480
1440 1444 1446 1445 1440 1430 1396 1391 1398 1407 1409 1390 1397 1399 1404 1411 1419 1401 1404 1405 1409 1412 1413 1414 1417 1421 1426 1433 1439 1439 1445 1449 1452 1456 1461 1465 1468 1471 1474 1477 1480 1481 1483 1483
1438 1443 1435 1434 1429 1415 1394 1393 1400 1414 1391 1380 1384 1387 1396 1403 1400 1399 1400 1403 1408 1409 1411 1412 1416 1419 1423 1430 1437 1441 1443 1447 1452 1456 1461 1465 1469 1472 1476 1479 1482 1484 1486 1487
1415 1426 1429 1432 1429 1414 1394 1397 1398 1387 1378 1378 1378 1382 1386 1390 1394 1396 1399 1401 1404 1405 1408 1411 1414 1417 1422 1429 1434 1440 1443 1445 1450 1456 1460 1464 1468 1472 1476 1479 1483 1485 1488 1490
1407 1398 1403 1407 1398 1387 1384 1383 1379 1379 1379 1378 1379 1379 1382 1387 1392 1391 1396 1399 1401 1402 1406 1409 1413 1416 1422 1427 1436 1441 1444 1447 1448 1455 1460 1463 1467 1471 1475 1478 1481 1484 1487 1489
1395 1394 1399 1398 1384 1385 1386 1383 1382 1382 1380 1379 1381 1379 1380 1384 1387 1391 1393 1397 1399 1401 1404 1407 1411 1415 1421 1425 1434 1442 1445 1447 1450 1454 1459 1463 1467 1470 1474 1477 1481 1483 1486 1489
1384 1391 1394 1383 1382 1383 1382 1381 1379 1378 1375 1376 1379 1378 1380 1382 1384 1389 1392 1394 1395 1399 1403 1406 1409 1414 1418 1425 1430 1438 1443 1449 1451 1455 1460 1464 1468 1471 1474 1477 1480 1483 1486 1488
1377 1377 1379 1370 1373 1374 1374 1376 1375 1374 1372 1373 1374 1376 1379 1382 1382 1385 1390 1392 1394 1397 1400 1404 1407 1414 1417 1424 1429 1434 1439 1442 1450 1454 1458 1465 1468 1471 1475 1478 1480 1482 1485 1488